Tracking 34706 objects as of 10-Jul-2026
HD Live streaming from Space Station
objects crossing your sky now

SL-14 R/B

Track SL-14 R/B now!
10-day predictions


NORAD ID: 16409
Int'l Code: 1985-119B
Perigee: 941.7 km
Apogee: 965.5 km
Inclination: 82.5 °
Period: 104.0 minutes
Semi major axis: 7324 km
RCS: 5.0426 m2 (large)
Launch date: December 26, 1985
Source: Commonwealth of Independent States (former USSR) (CIS)
Launch site: PLESETSK MISSILE AND SPACE COMPLEX (PKMTR)

Note: This is a ROCKET BODY
Your satellite tracking list
Your tracking list is empty




NASA's NSSDC Master Catalog

Two Line Element Set (TLE):
1 16409U 85119B   26191.13787238  .00000023  00000-0  67683-5 0  9992
2 16409  82.5353 244.0682 0016305  89.4916 270.8113 13.84928542 48646
Source of the keplerian elements: AFSPC